* Astronomy

Members Login
Post Info TOPIC: Comet P/2010 JC81 (WISE)


L

Posts: 131433
Date:
Comet P/2010 JC81 (WISE)
Permalink  
 


Orbital elements:
    P/2010 JC81 (WISE)
Epoch 2011 Apr. 29.0 TT = JDT 2455680.5
T 2011 Apr. 26.56052 TT                                 MPC
q   1.8107299            (2000.0)            P               Q
n   0.04242593     Peri.   12.57186     +0.75173186     -0.57674865
a   8.1417001      Node    30.76802     +0.53790987     +0.25572724
e   0.7775981      Incl.   38.68999     +0.38151302     +0.77586376
P  23.2
From 52 observations 2010 May 10-2011 Aug. 5

MPEC 2011 - P24

This unusual asteroid was discovered in images from the the Wide-field Infrared Survey Explorer (WISE) satellite on May 10. It has an inclined orbit with a period of around 23 years. Perihelion is at 1.8 AU in 2011 April.
Source

Orbital elements:
2010 JC81
Epoch 2010 July 23.0 TT = JDT 2455400.5                 MPC
M 348.20353              (2000.0)            P               Q
n   0.04248865     Peri.   12.60760     +0.75126510     -0.57732879
a   8.1336864      Node    30.77698     +0.53819190     +0.25537539
e   0.7774424      Incl.   38.68513     +0.38203433     +0.77554811
P  23.20           H   13.3           G   0.15           U   3

MPEC 2010 - V52



__________________
Page 1 of 1  sorted by
Quick Reply

Please log in to post quick replies.



Create your own FREE Forum
Report Abuse
Powered by ActiveBoard